Showing default

KOREASAT 6A, 61910

Orbit data source: Space-Track

KOREASAT 6A, 61910 is a payload satellite owned by KT Sat (KR) in GEO that was launched on Mon, 11 Nov 2024 UTC via an FALCON 9 launch vehicle from the Air Force Eastern Test Range (AFETR). Payload-class satellites include a variety of spacecraft equipped with specific instruments for various scientific and technological missions. These include communications satellites like Starlink; space stations such as the ISS; scientific satellites like the Hubble; Earth observation satellites from companies like Planet Labs, Umbra, and HawkEye 360; GPS; miniature CubeSats for education and research; and military/defense satellites.

Not visible in the next 10 days
Identifier
61910, 2024-206A
Orbit
GEO
Country
Flag of UnknownUnknown / SKOR
Related business
Manufacturer
Thales Alenia
Mission
Operational Commercial Communications
Bus & Motor
SPACEBUS 4000B2, S400
Mass
~3,500 kg wet, ~2,000 kg dry
Launch date (UTC)
2024-11-11 (1 year ago)
Launch vehicle
FALCON 9
Launch site
Air Force Eastern Test Range (AFETR)
Object type
Payload
Rocket body
Debris
Shape & HBR
Box + 2 Pan, 19.0 m
Radar Cross Section
39.423 m²

Expand to show TLE details & history
Last TLE update: 9 hours ago

TLE from 9 hours ago
0 KOREASAT 6A
1 61910U 24206A   25342.60392240 -.00000360  00000-0  00000-0 0  9993
2 61910   0.0311  97.2756 0001064 139.0187 174.7373  1.00270464  3920
Epoch: 2025-12-08T14:29Z
TLE epoch observation values (Epoch: 2025-12-08T14:29:38.895Z)
Latitude
0.00525°
Longitude
116.01535°
Altitude
35,790.935 km
Speed
3.074 km/s
True Right ascension
03h 24m 06s
True Declination
0° 00' 19"
Sunlit
Object was in daylight at epoch
Visualization orbit readout
Latitude
Unknown
Longitude
Unknown
Altitude
Unknown
Speed
Unknown
Apparent Right ascension
Unknown
Apparent Declination
Unknown
Sunlit
N/A
Visualization observer readout
Local Sidereal Time
22:07:22
Azimuth
Unknown
Elevation
Unknown
Doppler factor
Unknown
Orbital elements
Apogee altitude
35,792.522 km
Perigee altitude
35,783.549 km
Semi-major axis
42,166.173 km
Eccentricity
0.00011
Inclination
0.0311°
RAAN
97.2756°
Arg. of periapsis
139.0187°
True anomaly
174.73842°
Mean anomaly
174.7373°
Eccentric anomaly
174.73786°
Mean motion
0.25067 °/min
Orbital period
1,436.17 mins
BSTAR
0
Loading maneuver chart data...
Computing Atmospheric mass density...
Loading historical data...
Loading historical data...
Loading historical data...
Loading historical data...
Loading historical data...
Loading historical data...
Loading historical data...
Other satellites on launch #206 in the year 2024 (2024-11-11 UTC)

Documentation

Showing up to 5 results
|